Overview Statistics Trail Chart Weather Telemetry Raw packets
 

This is the latest recevied weather packets stored in our database for station/object KB9YVI-11. If no packets are shown the sender has not sent any weather packets the latest 10 day(s).

<< 61 62 63 64 65 66 67 >>
Time Temp. Humidity Pressure Rain* Wind** Luminosity Snow
1787851941 26.67° C 94% 0 hPa 0 mm - - -
1787851640 26.67° C 92% 0 hPa 0 mm - - -
1787851338 26.67° C 96% 0 hPa 0 mm - - -
1787850740 26.67° C 96% 0 hPa 0 mm - - -
1787850441 26.67° C 95% 0 hPa 0 mm - - -
1787850140 26.67° C 95% 0 hPa 0 mm - - -
1787849841 26.67° C 97% 0 hPa 0 mm - - -
1787849241 26.11° C 97% 0 hPa 0 mm - - -
1787848940 26.11° C 97% 0 hPa 0 mm - - -
1787848640 26.11° C 97% 0 hPa 0 mm - - -
1787848341 26.11° C 97% 0 hPa 0 mm - - -
1787847739 25.56° C 97% 0 hPa 0 mm - - -
1787847440 26.11° C 97% 0 hPa 0 mm - - -
1787846840 25.56° C 99% 0 hPa 0 mm - - -
1787846241 25.56° C 100% 0 hPa 0 mm - - -
1787845640 24.44° C 100% 0 hPa 0 mm - - -
1787845341 24.44° C 100% 0 hPa 0 mm - - -
1787845040 23.89° C 100% 0 hPa 0 mm - - -
1787844740 23.89° C 100% 0 hPa 0 mm - - -
1787844139 22.78° C 100% 0 hPa 0 mm - - -
1787843540 22.78° C 100% 0 hPa 0 mm - - -
1787843240 22.22° C 100% 0 hPa 0 mm - - -
1787842640 21.67° C 100% 0 hPa 0 mm - - -
1787842040 21.67° C 100% 0 hPa 0 mm - - -
1787841817 21.67° C 100% 0 hPa 0 mm - - -

* Rain latest hour (hover to see other rain measurements)
** Current wind speed in m/s (hover to see current wind gust speed)